| time (UTC) | temp C | wind direction | speed KPH | gust KPH | rain 1hr cm | rain 24hr cm | rain mn cm | humidity % | barometer mb |
| 20260902060522 | 15 | 116 | 3.2 | 4.8 | 0.00 | 0.00 | 0.00 | 87 | 1019.9 |
| 20260902060048 | 14 | 206 | 1.6 | 4.8 | 0.00 | 0.00 | 0.00 | 88 | 1019.7 |
| 20260902060011 | 14 | 206 | 1.6 | 4.8 | 0.00 | 0.00 | 0.00 | 88 | 1019.9 |
| 20260902054503 | 13 | 177 | 0.0 | 4.8 | 0.00 | 0.00 | 0.00 | 91 | 1019.7 |
| 20260902054426 | 13 | 177 | 1.6 | 4.8 | 0.00 | 0.00 | 0.00 | 91 | 1019.9 |
| 20260902053912 | 13 | 177 | 1.6 | 4.8 | 0.00 | 0.00 | 0.00 | 92 | 1019.9 |
| 20260902053356 | 13 | 181 | 1.6 | 6.4 | 0.00 | 0.00 | 0.00 | 93 | 1019.9 |
| 20260902053022 | 13 | 182 | 1.6 | 6.4 | 0.00 | 0.00 | 0.00 | 94 | 1019.7 |
| 20260902052843 | 13 | 186 | 3.2 | 4.8 | 0.00 | 0.00 | 0.00 | 94 | 1019.9 |
| 20260902052329 | 13 | 200 | 1.6 | 4.8 | 0.00 | 0.00 | 0.00 | 95 | 1019.9 |
| 20260902051815 | 12 | 219 | 1.6 | 4.8 | 0.00 | 0.00 | 0.00 | 95 | 1019.8 |
| 20260902051556 | 12 | 219 | 0.0 | 4.8 | 0.00 | 0.00 | 0.00 | 95 | 1019.6 |
| 20260902051258 | 12 | 219 | 0.0 | 4.8 | 0.00 | 0.00 | 0.00 | 95 | 1019.7 |
| 20260902050747 | 12 | 219 | 0.0 | 3.2 | 0.00 | 0.00 | 0.00 | 95 | 1019.7 |
| 20260902050230 | 12 | 192 | 0.0 | 3.2 | 0.00 | 0.00 | 0.00 | 95 | 1019.6 |
| 20260902050002 | 11 | 192 | 0.0 | 3.2 | 0.00 | 0.00 | 0.00 | 95 | 1019.5 |
| 20260902045722 | 12 | 192 | 0.0 | 1.6 | 0.00 | 0.00 | 0.00 | 95 | 1019.6 |
| 20260902045205 | 12 | 192 | 0.0 | 1.6 | 0.00 | 0.00 | 0.00 | 96 | 1019.6 |
| 20260902044553 | 12 | 192 | 0.0 | 1.6 | 0.00 | 0.00 | 0.00 | 96 | 1019.5 |
| 20260902043047 | 11 | 192 | 0.0 | 3.2 | 0.00 | 0.00 | 0.00 | 96 | 1019.4 |
| 20260902042553 | 11 | 192 | 0.0 | 3.2 | 0.00 | 0.00 | 0.00 | 97 | 1019.5 |
| 20260902042036 | 11 | 188 | 1.6 | 3.2 | 0.00 | 0.00 | 0.00 | 97 | 1019.6 |
| 20260902041604 | 11 | 188 | 1.6 | 4.8 | 0.00 | 0.00 | 0.00 | 97 | 1019.4 |
| 20260902041523 | 11 | 188 | 1.6 | 4.8 | 0.00 | 0.00 | 0.00 | 97 | 1019.6 |
| 20260902041008 | 11 | 188 | 1.6 | 4.8 | 0.00 | 0.00 | 0.00 | 97 | 1019.6 |
| 20260902040454 | 11 | 229 | 1.6 | 4.8 | 0.00 | 0.00 | 0.00 | 97 | 1019.6 |
| 20260902040016 | 11 | 234 | 1.6 | 4.8 | 0.00 | 0.00 | 0.00 | 97 | 1019.5 |
| 20260902035938 | 11 | 234 | 0.0 | 4.8 | 0.00 | 0.00 | 0.00 | 97 | 1019.6 |
| 20260902035424 | 11 | 234 | 1.6 | 3.2 | 0.00 | 0.00 | 0.00 | 97 | 1019.6 |
| 20260902034908 | 11 | 234 | 1.6 | 3.2 | 0.00 | 0.00 | 0.00 | 97 | 1019.6 |
| 20260902034528 | 11 | 234 | 0.0 | 4.8 | 0.00 | 0.00 | 0.00 | 97 | 1019.4 |
| 20260902033048 | 10 | 250 | 1.6 | 4.8 | 0.00 | 0.00 | 0.00 | 97 | 1019.4 |
| 20260902032804 | 11 | 302 | 0.0 | 3.2 | 0.00 | 0.00 | 0.00 | 97 | 1019.5 |
| 20260902031737 | 10 | 312 | 0.0 | 1.6 | 0.00 | 0.00 | 0.00 | 97 | 1019.5 |
| 20260902031537 | 10 | 312 | 0.0 | 1.6 | 0.00 | 0.00 | 0.00 | 97 | 1019.3 |
| 20260902031235 | 10 | 312 | 0.0 | 1.6 | 0.00 | 0.00 | 0.00 | 97 | 1019.5 |
| 20260902030735 | 10 | 312 | 0.0 | 0.0 | 0.00 | 0.00 | 0.00 | 97 | 1019.5 |
| 20260902030233 | 10 | 312 | 0.0 | 1.6 | 0.00 | 0.00 | 0.00 | 97 | 1019.5 |
| 20260902030010 | 10 | 312 | 0.0 | 1.6 | 0.00 | 0.00 | 0.00 | 97 | 1019.3 |
| 20260902025731 | 10 | 312 | 0.0 | 1.6 | 0.00 | 0.00 | 0.00 | 97 | 1019.4 |
| 20260902025230 | 10 | 312 | 0.0 | 1.6 | 0.00 | 0.00 | 0.00 | 97 | 1019.4 |
| 20260902024720 | 10 | 312 | 0.0 | 1.6 | 0.00 | 0.00 | 0.00 | 97 | 1019.4 |
| 20260902024559 | 10 | 312 | 0.0 | 1.6 | 0.00 | 0.00 | 0.00 | 97 | 1019.2 |
| 20260902024207 | 10 | 312 | 0.0 | 1.6 | 0.00 | 0.00 | 0.00 | 97 | 1019.4 |
| 20260902023141 | 10 | 312 | 0.0 | 1.6 | 0.00 | 0.00 | 0.00 | 97 | 1019.5 |
| 20260902023022 | 10 | 312 | 0.0 | 1.6 | 0.00 | 0.00 | 0.00 | 97 | 1019.3 |
| 20260902022627 | 10 | 312 | 0.0 | 0.0 | 0.00 | 0.00 | 0.00 | 97 | 1019.6 |
| 20260902021621 | 10 | 312 | 0.0 | 3.2 | 0.00 | 0.00 | 0.00 | 97 | 1019.6 |
| 20260902021602 | 10 | 312 | 0.0 | 0.0 | 0.00 | 0.00 | 0.00 | 97 | 1019.5 |
| 20260902021120 | 10 | 312 | 0.0 | 3.2 | 0.00 | 0.00 | 0.00 | 97 | 1019.6 |
| 20260902020606 | 10 | 312 | 0.0 | 3.2 | 0.00 | 0.00 | 0.00 | 97 | 1019.6 |
| 20260902020117 | 10 | 312 | 0.0 | 3.2 | 0.00 | 0.00 | 0.00 | 97 | 1019.6 |
| 20260902020042 | 10 | 312 | 0.0 | 3.2 | 0.00 | 0.00 | 0.00 | 97 | 1019.4 |
| 20260902015556 | 10 | 312 | 0.0 | 0.0 | 0.00 | 0.00 | 0.00 | 97 | 1019.6 |
| 20260902015044 | 10 | 312 | 0.0 | 0.0 | 0.00 | 0.00 | 0.00 | 97 | 1019.6 |
| 20260902014604 | 10 | 312 | 0.0 | 0.0 | 0.00 | 0.00 | 0.00 | 97 | 1019.4 |
| 20260902014525 | 10 | 312 | 0.0 | 0.0 | 0.00 | 0.00 | 0.00 | 97 | 1019.5 |
| 20260902014019 | 10 | 312 | 0.0 | 0.0 | 0.00 | 0.00 | 0.00 | 96 | 1019.7 |
| 20260902013512 | 10 | 312 | 0.0 | 0.0 | 0.00 | 0.00 | 0.00 | 97 | 1019.6 |
| 20260902013040 | 10 | 312 | 0.0 | 0.0 | 0.00 | 0.00 | 0.00 | 97 | 1019.5 |
| 20260902013001 | 10 | 312 | 0.0 | 0.0 | 0.00 | 0.00 | 0.00 | 97 | 1019.6 |
| 20260902012459 | 10 | 312 | 0.0 | 0.0 | 0.00 | 0.00 | 0.00 | 97 | 1019.7 |
| 20260902011950 | 10 | 312 | 0.0 | 0.0 | 0.00 | 0.00 | 0.00 | 96 | 1019.7 |
| 20260902011529 | 10 | 312 | 0.0 | 0.0 | 0.00 | 0.00 | 0.00 | 96 | 1019.5 |
| 20260902011446 | 10 | 312 | 0.0 | 0.0 | 0.00 | 0.00 | 0.00 | 96 | 1019.7 |
| 20260902010941 | 10 | 312 | 0.0 | 0.0 | 0.00 | 0.00 | 0.00 | 96 | 1019.7 |
| 20260902010424 | 10 | 312 | 0.0 | 0.0 | 0.00 | 0.00 | 0.00 | 96 | 1019.5 |
| 20260902010105 | 10 | 312 | 0.0 | 0.0 | 0.00 | 0.00 | 0.00 | 96 | 1019.4 |
| 20260902005922 | 10 | 312 | 0.0 | 0.0 | 0.00 | 0.00 | 0.00 | 96 | 1019.6 |
| 20260902005419 | 10 | 312 | 0.0 | 0.0 | 0.00 | 0.00 | 0.00 | 96 | 1019.6 |
| 20260902004914 | 10 | 312 | 0.0 | 0.0 | 0.00 | 0.00 | 0.00 | 96 | 1019.6 |
| 20260902004648 | 10 | 312 | 0.0 | 0.0 | 0.00 | 0.00 | 0.00 | 96 | 1019.4 |
| 20260902003854 | 10 | 312 | 0.0 | 0.0 | 0.00 | 0.00 | 0.00 | 96 | 1019.6 |
| 20260902003351 | 10 | 312 | 0.0 | 0.0 | 0.00 | 0.00 | 0.00 | 96 | 1019.5 |
| 20260902003125 | 10 | 312 | 0.0 | 0.0 | 0.00 | 0.00 | 0.00 | 96 | 1019.3 |
| 20260902002840 | 10 | 312 | 0.0 | 0.0 | 0.00 | 0.00 | 0.00 | 96 | 1019.6 |
| 20260902002336 | 10 | 312 | 0.0 | 0.0 | 0.00 | 0.00 | 0.00 | 96 | 1019.6 |
| 20260902001837 | 10 | 312 | 0.0 | 0.0 | 0.00 | 0.00 | 0.00 | 96 | 1019.5 |
| 20260902001508 | 10 | 312 | 0.0 | 0.0 | 0.00 | 0.00 | 0.00 | 96 | 1019.3 |
| 20260902001325 | 10 | 312 | 0.0 | 0.0 | 0.00 | 0.00 | 0.00 | 96 | 1019.6 |
| 20260902000301 | 11 | 312 | 0.0 | 3.2 | 0.00 | 0.00 | 0.00 | 96 | 1019.5 |
| 20260902000019 | 10 | 312 | 0.0 | 3.2 | 0.00 | 0.00 | 0.00 | 96 | 1019.2 |
| 20260901235228 | 11 | 312 | 0.0 | 0.0 | 0.00 | 0.00 | 0.00 | 96 | 1019.5 |
| 20260901234717 | 11 | 312 | 0.0 | 0.0 | 0.00 | 0.00 | 0.00 | 96 | 1019.5 |
| 20260901234555 | 10 | 312 | 0.0 | 0.0 | 0.00 | 0.00 | 0.00 | 96 | 1019.2 |
| 20260901234203 | 11 | 312 | 0.0 | 0.0 | 0.00 | 0.00 | 0.00 | 96 | 1019.5 |
| 20260901233651 | 11 | 312 | 0.0 | 0.0 | 0.00 | 0.00 | 0.00 | 96 | 1019.5 |
| 20260901233012 | 11 | 312 | 0.0 | 0.0 | 0.00 | 0.00 | 0.00 | 96 | 1019.2 |
| 20260901232625 | 11 | 312 | 0.0 | 0.0 | 0.00 | 0.00 | 0.00 | 96 | 1019.4 |
| 20260901231545 | 11 | 312 | 0.0 | 0.0 | 0.00 | 0.00 | 0.00 | 96 | 1019.2 |
| 20260901230535 | 11 | 312 | 0.0 | 1.6 | 0.00 | 0.00 | 0.00 | 95 | 1019.6 |
| 20260901230108 | 11 | 312 | 0.0 | 0.0 | 0.00 | 0.00 | 0.00 | 95 | 1019.3 |
| 20260901225509 | 11 | 312 | 0.0 | 0.0 | 0.00 | 0.00 | 0.00 | 95 | 1019.5 |
| 20260901225008 | 11 | 312 | 0.0 | 0.0 | 0.00 | 0.00 | 0.00 | 95 | 1019.5 |
| 20260901224523 | 11 | 312 | 0.0 | 0.0 | 0.00 | 0.00 | 0.00 | 95 | 1019.3 |
| 20260901224005 | 11 | 312 | 0.0 | 0.0 | 0.00 | 0.00 | 0.00 | 95 | 1019.6 |
| 20260901223027 | 11 | 312 | 0.0 | 0.0 | 0.00 | 0.00 | 0.00 | 95 | 1019.3 |
| 20260901222439 | 11 | 312 | 0.0 | 0.0 | 0.00 | 0.00 | 0.00 | 95 | 1019.5 |
| 20260901221930 | 11 | 312 | 0.0 | 0.0 | 0.00 | 0.00 | 0.00 | 95 | 1019.5 |
| 20260901221610 | 11 | 312 | 0.0 | 0.0 | 0.00 | 0.00 | 0.00 | 95 | 1019.2 |
| 20260901221418 | 11 | 312 | 0.0 | 0.0 | 0.00 | 0.00 | 0.00 | 95 | 1019.4 |
| 20260901220918 | 11 | 312 | 0.0 | 0.0 | 0.00 | 0.00 | 0.00 | 95 | 1019.4 |
| 20260901220405 | 11 | 312 | 0.0 | 0.0 | 0.00 | 0.00 | 0.00 | 95 | 1019.4 |
| 20260901220031 | 11 | 312 | 0.0 | 0.0 | 0.00 | 0.00 | 0.00 | 95 | 1019.2 |
| 20260901215336 | 12 | 312 | 0.0 | 0.0 | 0.00 | 0.00 | 0.00 | 95 | 1019.4 |
| 20260901214825 | 12 | 312 | 0.0 | 0.0 | 0.00 | 0.00 | 0.00 | 94 | 1019.4 |
| 20260901214556 | 11 | 312 | 0.0 | 0.0 | 0.00 | 0.00 | 0.00 | 95 | 1019.1 |
| 20260901214317 | 12 | 312 | 0.0 | 0.0 | 0.00 | 0.00 | 0.00 | 94 | 1019.4 |
| 20260901213805 | 12 | 312 | 0.0 | 0.0 | 0.00 | 0.00 | 0.00 | 94 | 1019.4 |
| 20260901213249 | 12 | 312 | 0.0 | 0.0 | 0.00 | 0.00 | 0.00 | 94 | 1019.4 |
| 20260901213026 | 12 | 312 | 0.0 | 0.0 | 0.00 | 0.00 | 0.00 | 94 | 1019.1 |
| 20260901212737 | 12 | 312 | 0.0 | 0.0 | 0.00 | 0.00 | 0.00 | 94 | 1019.4 |
| 20260901212224 | 12 | 312 | 0.0 | 0.0 | 0.00 | 0.00 | 0.00 | 94 | 1019.4 |
| 20260901211714 | 12 | 312 | 0.0 | 3.2 | 0.00 | 0.00 | 0.00 | 94 | 1019.4 |
| 20260901211546 | 12 | 312 | 0.0 | 0.0 | 0.00 | 0.00 | 0.00 | 94 | 1019.2 |
| 20260901210656 | 12 | 312 | 0.0 | 3.2 | 0.00 | 0.00 | 0.00 | 94 | 1019.5 |
| 20260901210156 | 12 | 312 | 0.0 | 3.2 | 0.00 | 0.00 | 0.00 | 94 | 1019.5 |
| 20260901210050 | 12 | 312 | 0.0 | 3.2 | 0.00 | 0.00 | 0.00 | 94 | 1019.2 |
| 20260901205656 | 12 | 312 | 0.0 | 3.2 | 0.00 | 0.00 | 0.00 | 94 | 1019.5 |
| 20260901205147 | 12 | 312 | 0.0 | 3.2 | 0.00 | 0.00 | 0.00 | 93 | 1019.5 |
| 20260901204631 | 12 | 312 | 0.0 | 0.0 | 0.00 | 0.00 | 0.00 | 93 | 1019.4 |
| 20260901204504 | 12 | 312 | 0.0 | 1.6 | 0.00 | 0.00 | 0.00 | 93 | 1019.2 |
| 20260901204118 | 12 | 312 | 0.0 | 1.6 | 0.00 | 0.00 | 0.00 | 93 | 1019.4 |
| 20260901203610 | 13 | 312 | 0.0 | 1.6 | 0.00 | 0.00 | 0.00 | 93 | 1019.4 |
| 20260901203058 | 13 | 312 | 0.0 | 1.6 | 0.00 | 0.00 | 0.00 | 93 | 1019.4 |
| 20260901203034 | 12 | 312 | 0.0 | 1.6 | 0.00 | 0.00 | 0.00 | 93 | 1019.1 |
| 20260901202548 | 13 | 312 | 0.0 | 1.6 | 0.00 | 0.00 | 0.00 | 93 | 1019.4 |
| 20260901202034 | 13 | 312 | 0.0 | 1.6 | 0.00 | 0.00 | 0.00 | 93 | 1019.3 |
| 20260901201558 | 13 | 312 | 0.0 | 1.6 | 0.00 | 0.00 | 0.00 | 93 | 1019.0 |
| 20260901201521 | 13 | 312 | 0.0 | 1.6 | 0.00 | 0.00 | 0.00 | 93 | 1019.3 |
| 20260901201004 | 13 | 312 | 0.0 | 1.6 | 0.00 | 0.00 | 0.00 | 93 | 1019.3 |
| 20260901200450 | 13 | 312 | 0.0 | 1.6 | 0.00 | 0.00 | 0.00 | 92 | 1019.3 |
| 20260901200004 | 13 | 312 | 0.0 | 1.6 | 0.00 | 0.00 | 0.00 | 92 | 1019.0 |
| 20260901195414 | 13 | 312 | 0.0 | 1.6 | 0.00 | 0.00 | 0.00 | 92 | 1019.2 |
| 20260901194900 | 13 | 312 | 0.0 | 1.6 | 0.00 | 0.00 | 0.00 | 92 | 1019.2 |
| 20260901194525 | 13 | 312 | 0.0 | 1.6 | 0.00 | 0.00 | 0.00 | 92 | 1018.9 |
| 20260901194347 | 13 | 312 | 0.0 | 1.6 | 0.00 | 0.00 | 0.00 | 92 | 1019.2 |
| 20260901193830 | 14 | 312 | 0.0 | 1.6 | 0.00 | 0.00 | 0.00 | 91 | 1019.2 |
| 20260901193319 | 14 | 312 | 0.0 | 3.2 | 0.00 | 0.00 | 0.00 | 91 | 1019.2 |
| 20260901193046 | 14 | 312 | 0.0 | 1.6 | 0.00 | 0.00 | 0.00 | 91 | 1018.9 |
| 20260901192250 | 14 | 312 | 1.6 | 3.2 | 0.00 | 0.00 | 0.00 | 91 | 1019.2 |
| 20260901191513 | 14 | 312 | 1.6 | 4.8 | 0.00 | 0.00 | 0.00 | 91 | 1018.9 |
| 20260901191225 | 15 | 312 | 0.0 | 3.2 | 0.00 | 0.00 | 0.00 | 90 | 1019.2 |
| 20260901190156 | 15 | 312 | 0.0 | 0.0 | 0.00 | 0.00 | 0.00 | 90 | 1019.2 |
| 20260901190030 | 15 | 312 | 0.0 | 0.0 | 0.00 | 0.00 | 0.00 | 89 | 1018.9 |
| 20260901185642 | 15 | 312 | 0.0 | 0.0 | 0.00 | 0.00 | 0.00 | 89 | 1019.2 |
| 20260901184608 | 15 | 312 | 0.0 | 1.6 | 0.00 | 0.00 | 0.00 | 88 | 1019.2 |
| 20260901184544 | 15 | 312 | 0.0 | 1.6 | 0.00 | 0.00 | 0.00 | 88 | 1018.8 |
| 20260901184054 | 15 | 312 | 0.0 | 3.2 | 0.00 | 0.00 | 0.00 | 89 | 1019.1 |
| 20260901183121 | 15 | 312 | 0.0 | 0.0 | 0.00 | 0.00 | 0.00 | 87 | 1018.8 |
| 20260901182510 | 16 | 312 | 0.0 | 0.0 | 0.00 | 0.00 | 0.00 | 87 | 1019.1 |
| 20260901181521 | 16 | 312 | 0.0 | 0.0 | 0.00 | 0.00 | 0.00 | 85 | 1018.7 |
| 20260901180928 | 16 | 312 | 0.0 | 0.0 | 0.00 | 0.00 | 0.00 | 85 | 1018.9 |
| 20260901180415 | 16 | 312 | 0.0 | 0.0 | 0.00 | 0.00 | 0.00 | 84 | 1018.8 |
| 20260901180040 | 16 | 312 | 0.0 | 0.0 | 0.00 | 0.00 | 0.00 | 84 | 1018.5 |
| 20260901175900 | 17 | 312 | 0.0 | 0.0 | 0.00 | 0.00 | 0.00 | 84 | 1018.8 |
| 20260901175347 | 17 | 312 | 0.0 | 0.0 | 0.00 | 0.00 | 0.00 | 83 | 1018.7 |
| 20260901174834 | 17 | 312 | 0.0 | 0.0 | 0.00 | 0.00 | 0.00 | 82 | 1018.7 |
| 20260901174603 | 17 | 312 | 0.0 | 0.0 | 0.00 | 0.00 | 0.00 | 82 | 1018.3 |
| 20260901174318 | 17 | 312 | 0.0 | 0.0 | 0.00 | 0.00 | 0.00 | 81 | 1018.7 |
| 20260901173242 | 18 | 312 | 0.0 | 0.0 | 0.00 | 0.00 | 0.00 | 80 | 1018.6 |
| 20260901173012 | 18 | 312 | 0.0 | 0.0 | 0.00 | 0.00 | 0.00 | 79 | 1018.2 |
| 20260901172728 | 18 | 312 | 0.0 | 1.6 | 0.00 | 0.00 | 0.00 | 79 | 1018.5 |
| 20260901172216 | 18 | 312 | 0.0 | 3.2 | 0.00 | 0.00 | 0.00 | 78 | 1018.6 |
| 20260901171704 | 19 | 312 | 0.0 | 3.2 | 0.00 | 0.00 | 0.00 | 77 | 1018.6 |
| 20260901171548 | 18 | 312 | 0.0 | 3.2 | 0.00 | 0.00 | 0.00 | 76 | 1018.2 |
| 20260901171203 | 19 | 312 | 0.0 | 1.6 | 0.00 | 0.00 | 0.00 | 76 | 1018.6 |
| 20260901170634 | 19 | 312 | 0.0 | 1.6 | 0.00 | 0.00 | 0.00 | 76 | 1018.5 |
| 20260901170121 | 20 | 312 | 0.0 | 1.6 | 0.00 | 0.00 | 0.00 | 75 | 1018.5 |
| 20260901170100 | 19 | 312 | 0.0 | 1.6 | 0.00 | 0.00 | 0.00 | 75 | 1018.1 |
| 20260901165050 | 20 | 312 | 0.0 | 1.6 | 0.00 | 0.00 | 0.00 | 74 | 1018.3 |
| 20260901164532 | 20 | 312 | 0.0 | 3.2 | 0.00 | 0.00 | 0.00 | 74 | 1018.3 |
| 20260901164506 | 20 | 312 | 0.0 | 1.6 | 0.00 | 0.00 | 0.00 | 74 | 1018.0 |
| 20260901164031 | 20 | 312 | 0.0 | 3.2 | 0.00 | 0.00 | 0.00 | 72 | 1018.3 |
| 20260901163509 | 20 | 312 | 1.6 | 3.2 | 0.00 | 0.00 | 0.00 | 72 | 1018.5 |
| 20260901163049 | 20 | 312 | 0.0 | 3.2 | 0.00 | 0.00 | 0.00 | 71 | 1018.1 |
| 20260901162949 | 20 | 312 | 1.6 | 3.2 | 0.00 | 0.00 | 0.00 | 70 | 1018.5 |
| 20260901162435 | 20 | 312 | 0.0 | 3.2 | 0.00 | 0.00 | 0.00 | 69 | 1018.5 |
| 20260901161603 | 20 | 312 | 0.0 | 4.8 | 0.00 | 0.00 | 0.00 | 67 | 1018.1 |
| 20260901160416 | 21 | 313 | 3.2 | 8.0 | 0.00 | 0.00 | 0.00 | 66 | 1018.5 |
| 20260901160131 | 21 | 313 | 3.2 | 8.0 | 0.00 | 0.00 | 0.00 | 65 | 1018.0 |
| 20260901155851 | 21 | 308 | 1.6 | 8.0 | 0.00 | 0.00 | 0.00 | 65 | 1018.5 |
| 20260901155345 | 21 | 300 | 1.6 | 6.4 | 0.00 | 0.00 | 0.00 | 65 | 1018.3 |
| 20260901154836 | 21 | 300 | 3.2 | 9.7 | 0.00 | 0.00 | 0.00 | 64 | 1018.3 |
| 20260901154508 | 21 | 313 | 0.0 | 9.7 | 0.00 | 0.00 | 0.00 | 64 | 1018.1 |
| 20260901154330 | 21 | 313 | 3.2 | 9.7 | 0.00 | 0.00 | 0.00 | 64 | 1018.5 |
| 20260901153314 | 21 | 311 | 3.2 | 9.7 | 0.00 | 0.00 | 0.00 | 62 | 1018.3 |
| 20260901153045 | 21 | 319 | 1.6 | 8.0 | 0.00 | 0.00 | 0.00 | 64 | 1018.0 |
| 20260901152305 | 22 | 325 | 6.4 | 16.1 | 0.00 | 0.00 | 0.00 | 62 | 1018.2 |
| 20260901151800 | 22 | 308 | 4.8 | 16.1 | 0.00 | 0.00 | 0.00 | 62 | 1018.2 |
| 20260901151534 | 22 | 312 | 9.7 | 16.1 | 0.00 | 0.00 | 0.00 | 61 | 1017.8 |
| 20260901151248 | 22 | 323 | 4.8 | 12.9 | 0.00 | 0.00 | 0.00 | 63 | 1018.2 |
| 20260901150735 | 21 | 324 | 4.8 | 16.1 | 0.00 | 0.00 | 0.00 | 64 | 1018.1 |
| 20260901150236 | 21 | 313 | 6.4 | 16.1 | 0.00 | 0.00 | 0.00 | 62 | 1018.2 |
| 20260901150007 | 21 | 313 | 3.2 | 16.1 | 0.00 | 0.00 | 0.00 | 62 | 1017.7 |
| 20260901145720 | 21 | 306 | 8.0 | 16.1 | 0.00 | 0.00 | 0.00 | 61 | 1018.1 |
| 20260901145212 | 22 | 304 | 4.8 | 16.1 | 0.00 | 0.00 | 0.00 | 60 | 1018.1 |
| 20260901144709 | 22 | 311 | 4.8 | 14.5 | 0.00 | 0.00 | 0.00 | 60 | 1018.1 |
| 20260901144545 | 22 | 360 | 3.2 | 17.7 | 0.00 | 0.00 | 0.00 | 61 | 1017.8 |
| 20260901144206 | 22 | 321 | 6.4 | 20.9 | 0.00 | 0.00 | 0.00 | 60 | 1018.2 |
| 20260901143654 | 22 | 346 | 4.8 | 20.9 | 0.00 | 0.00 | 0.00 | 59 | 1018.1 |
| 20260901143018 | 22 | 360 | 1.6 | 12.9 | 0.00 | 0.00 | 0.00 | 59 | 1017.6 |
| 20260901142635 | 22 | 351 | 4.8 | 17.7 | 0.00 | 0.00 | 0.00 | 59 | 1018.0 |
| 20260901142126 | 22 | 295 | 8.0 | 20.9 | 0.00 | 0.00 | 0.00 | 59 | 1017.9 |
| 20260901141612 | 22 | 325 | 6.4 | 20.9 | 0.00 | 0.00 | 0.00 | 58 | 1017.9 |
| 20260901141548 | 22 | 315 | 8.0 | 20.9 | 0.00 | 0.00 | 0.00 | 58 | 1017.5 |
| 20260901141102 | 22 | 323 | 3.2 | 17.7 | 0.00 | 0.00 | 0.00 | 60 | 1018.0 |
| 20260901140559 | 22 | 303 | 3.2 | 17.7 | 0.00 | 0.00 | 0.00 | 59 | 1018.0 |
| 20260901140111 | 22 | 355 | 3.2 | 11.3 | 0.00 | 0.00 | 0.00 | 60 | 1018.0 |
| 20260901140034 | 22 | 355 | 3.2 | 9.7 | 0.00 | 0.00 | 0.00 | 60 | 1017.6 |
| 20260901135540 | 22 | 266 | 3.2 | 11.3 | 0.00 | 0.00 | 0.00 | 60 | 1018.0 |
| 20260901135039 | 22 | 331 | 4.8 | 12.9 | 0.00 | 0.00 | 0.00 | 57 | 1018.0 |
| 20260901134606 | 22 | 317 | 1.6 | 12.9 | 0.00 | 0.00 | 0.00 | 59 | 1017.6 |
| 20260901134529 | 22 | 319 | 4.8 | 12.9 | 0.00 | 0.00 | 0.00 | 58 | 1018.0 |
| 20260901134010 | 22 | 303 | 4.8 | 16.1 | 0.00 | 0.00 | 0.00 | 57 | 1017.9 |
| 20260901133500 | 22 | 261 | 4.8 | 16.1 | 0.00 | 0.00 | 0.00 | 56 | 1018.0 |
| 20260901133128 | 22 | 317 | 3.2 | 12.9 | 0.00 | 0.00 | 0.00 | 56 | 1017.6 |
| 20260901132947 | 23 | 301 | 4.8 | 12.9 | 0.00 | 0.00 | 0.00 | 56 | 1018.0 |
| 20260901132435 | 22 | 296 | 3.2 | 11.3 | 0.00 | 0.00 | 0.00 | 58 | 1017.9 |
| 20260901131924 | 22 | 239 | 4.8 | 14.5 | 0.00 | 0.00 | 0.00 | 58 | 1017.9 |
| 20260901131551 | 22 | 321 | 3.2 | 16.1 | 0.00 | 0.00 | 0.00 | 58 | 1017.5 |
| 20260901130911 | 22 | 333 | 8.0 | 17.7 | 0.00 | 0.00 | 0.00 | 56 | 1018.0 |
| 20260901130344 | 22 | 240 | 4.8 | 16.1 | 0.00 | 0.00 | 0.00 | 57 | 1018.0 |
| 20260901130013 | 22 | 319 | 6.4 | 12.9 | 0.00 | 0.00 | 0.00 | 55 | 1017.6 |
| 20260901125315 | 22 | 245 | 3.2 | 11.3 | 0.00 | 0.00 | 0.00 | 58 | 1018.0 |
| 20260901124803 | 22 | 323 | 3.2 | 19.3 | 0.00 | 0.00 | 0.00 | 59 | 1018.0 |
| 20260901124534 | 22 | 269 | 1.6 | 19.3 | 0.00 | 0.00 | 0.00 | 58 | 1017.7 |
| 20260901124249 | 22 | 319 | 4.8 | 19.3 | 0.00 | 0.00 | 0.00 | 57 | 1018.1 |
| 20260901123735 | 22 | 319 | 6.4 | 19.3 | 0.00 | 0.00 | 0.00 | 57 | 1018.0 |
| 20260901123056 | 22 | 355 | 6.4 | 20.9 | 0.00 | 0.00 | 0.00 | 55 | 1017.6 |
| 20260901122708 | 23 | 304 | 4.8 | 19.3 | 0.00 | 0.00 | 0.00 | 55 | 1018.0 |
| 20260901122155 | 23 | 294 | 3.2 | 16.1 | 0.00 | 0.00 | 0.00 | 56 | 1018.0 |
| 20260901121517 | 22 | 258 | 3.2 | 16.1 | 0.00 | 0.00 | 0.00 | 57 | 1017.6 |
| 20260901121127 | 22 | 306 | 4.8 | 16.1 | 0.00 | 0.00 | 0.00 | 56 | 1018.0 |
| 20260901120112 | 22 | 245 | 4.8 | 17.7 | 0.00 | 0.00 | 0.00 | 57 | 1018.1 |
| 20260901120034 | 22 | 244 | 9.7 | 17.7 | 0.00 | 0.00 | 0.00 | 57 | 1017.7 |
| 20260901115545 | 22 | 316 | 6.4 | 16.1 | 0.00 | 0.00 | 0.00 | 60 | 1018.1 |
| 20260901115033 | 22 | 238 | 6.4 | 16.1 | 0.00 | 0.00 | 0.00 | 60 | 1018.1 |
| 20260901114604 | 21 | 227 | 3.2 | 14.5 | 0.00 | 0.00 | 0.00 | 61 | 1017.7 |
| 20260901114523 | 21 | 241 | 6.4 | 16.1 | 0.00 | 0.00 | 0.00 | 64 | 1018.1 |
| 20260901114001 | 21 | 227 | 6.4 | 16.1 | 0.00 | 0.00 | 0.00 | 60 | 1018.1 |
| 20260901113439 | 21 | 253 | 6.4 | 12.9 | 0.00 | 0.00 | 0.00 | 60 | 1018.1 |
| 20260901113000 | 21 | 225 | 6.4 | 11.3 | 0.00 | 0.00 | 0.00 | 60 | 1017.7 |
| 20260901112413 | 21 | 247 | 4.8 | 11.3 | 0.00 | 0.00 | 0.00 | 61 | 1018.1 |
| 20260901111914 | 21 | 227 | 4.8 | 11.3 | 0.00 | 0.00 | 0.00 | 59 | 1018.1 |
| 20260901111542 | 21 | 227 | 4.8 | 11.3 | 0.00 | 0.00 | 0.00 | 58 | 1017.7 |
| 20260901111358 | 22 | 244 | 3.2 | 11.3 | 0.00 | 0.00 | 0.00 | 59 | 1018.1 |
| 20260901110844 | 22 | 248 | 4.8 | 17.7 | 0.00 | 0.00 | 0.00 | 62 | 1018.0 |
| 20260901110327 | 21 | 241 | 4.8 | 17.7 | 0.00 | 0.00 | 0.00 | 59 | 1018.0 |
| 20260901110058 | 21 | 226 | 1.6 | 12.9 | 0.00 | 0.00 | 0.00 | 61 | 1017.7 |
| 20260901105814 | 22 | 238 | 4.8 | 16.1 | 0.00 | 0.00 | 0.00 | 59 | 1018.0 |
| 20260901105300 | 22 | 243 | 3.2 | 16.1 | 0.00 | 0.00 | 0.00 | 57 | 1018.1 |
| 20260901104802 | 22 | 263 | 3.2 | 14.5 | 0.00 | 0.00 | 0.00 | 59 | 1018.0 |
| 20260901104619 | 22 | 308 | 1.6 | 14.5 | 0.00 | 0.00 | 0.00 | 60 | 1017.6 |
| 20260901103718 | 22 | 252 | 6.4 | 16.1 | 0.00 | 0.00 | 0.00 | 57 | 1018.0 |
| 20260901103201 | 22 | 276 | 6.4 | 17.7 | 0.00 | 0.00 | 0.00 | 59 | 1018.0 |
| 20260901103034 | 21 | 313 | 3.2 | 17.7 | 0.00 | 0.00 | 0.00 | 60 | 1017.7 |
| 20260901102648 | 22 | 246 | 9.7 | 16.1 | 0.00 | 0.00 | 0.00 | 62 | 1018.1 |
| 20260901102138 | 21 | 203 | 8.0 | 17.7 | 0.00 | 0.00 | 0.00 | 61 | 1018.0 |
| 20260901101621 | 21 | 225 | 6.4 | 14.5 | 0.00 | 0.00 | 0.00 | 63 | 1018.0 |
| 20260901101607 | 21 | 222 | 4.8 | 14.5 | 0.00 | 0.00 | 0.00 | 63 | 1017.6 |
| 20260901101107 | 21 | 242 | 8.0 | 16.1 | 0.00 | 0.00 | 0.00 | 62 | 1018.0 |
| 20260901100551 | 21 | 221 | 6.4 | 16.1 | 0.00 | 0.00 | 0.00 | 62 | 1017.9 |
| 20260901100040 | 21 | 252 | 6.4 | 16.1 | 0.00 | 0.00 | 0.00 | 62 | 1018.0 |
| 20260901100016 | 21 | 253 | 4.8 | 14.5 | 0.00 | 0.00 | 0.00 | 62 | 1017.6 |
| 20260901095527 | 21 | 236 | 8.0 | 16.1 | 0.00 | 0.00 | 0.00 | 64 | 1018.0 |
| 20260901094535 | 21 | 208 | 3.2 | 9.7 | 0.00 | 0.00 | 0.00 | 65 | 1017.6 |
| 20260901094458 | 21 | 236 | 3.2 | 12.9 | 0.00 | 0.00 | 0.00 | 66 | 1018.0 |
| 20260901093443 | 20 | 232 | 3.2 | 17.7 | 0.00 | 0.00 | 0.00 | 66 | 1018.0 |
| 20260901093055 | 20 | 229 | 1.6 | 17.7 | 0.00 | 0.00 | 0.00 | 67 | 1017.6 |
| 20260901092914 | 20 | 306 | 4.8 | 17.7 | 0.00 | 0.00 | 0.00 | 67 | 1018.0 |
| 20260901092402 | 21 | 274 | 4.8 | 12.9 | 0.00 | 0.00 | 0.00 | 65 | 1018.0 |
| 20260901091845 | 21 | 331 | 4.8 | 12.9 | 0.00 | 0.00 | 0.00 | 63 | 1017.9 |
| 20260901091614 | 21 | 296 | 4.8 | 12.9 | 0.00 | 0.00 | 0.00 | 64 | 1017.6 |
| 20260901091333 | 21 | 339 | 6.4 | 17.7 | 0.00 | 0.00 | 0.00 | 67 | 1017.9 |
| 20260901090819 | 21 | 242 | 8.0 | 17.7 | 0.00 | 0.00 | 0.00 | 63 | 1017.9 |
| 20260901090028 | 21 | 306 | 3.2 | 14.5 | 0.00 | 0.00 | 0.00 | 64 | 1017.5 |
| 20260901085747 | 21 | 302 | 4.8 | 19.3 | 0.00 | 0.00 | 0.00 | 64 | 1017.9 |
| 20260901085232 | 21 | 209 | 6.4 | 19.3 | 0.00 | 0.00 | 0.00 | 64 | 1018.0 |
| 20260901084717 | 21 | 246 | 6.4 | 20.9 | 0.00 | 0.00 | 0.00 | 64 | 1018.1 |
| 20260901084547 | 21 | 246 | 4.8 | 20.9 | 0.00 | 0.00 | 0.00 | 66 | 1017.7 |
| 20260901084159 | 21 | 245 | 4.8 | 20.9 | 0.00 | 0.00 | 0.00 | 64 | 1018.1 |
| 20260901083656 | 21 | 269 | 6.4 | 20.9 | 0.00 | 0.00 | 0.00 | 64 | 1018.1 |
| 20260901083141 | 21 | 252 | 4.8 | 20.9 | 0.00 | 0.00 | 0.00 | 64 | 1018.1 |
| 20260901083015 | 21 | 244 | 8.0 | 20.9 | 0.00 | 0.00 | 0.00 | 64 | 1017.6 |
| 20260901082632 | 21 | 248 | 3.2 | 14.5 | 0.00 | 0.00 | 0.00 | 65 | 1018.0 |
| 20260901082128 | 21 | 309 | 4.8 | 14.5 | 0.00 | 0.00 | 0.00 | 65 | 1018.0 |
| 20260901081656 | 21 | 333 | 3.2 | 14.5 | 0.00 | 0.00 | 0.00 | 66 | 1017.5 |
| 20260901081115 | 21 | 326 | 4.8 | 19.3 | 0.00 | 0.00 | 0.00 | 66 | 1017.9 |
| 20260901080608 | 20 | 279 | 6.4 | 17.7 | 0.00 | 0.00 | 0.00 | 67 | 1017.8 |
| 20260901080109 | 20 | 246 | 6.4 | 19.3 | 0.00 | 0.00 | 0.00 | 65 | 1017.7 |
| 20260901080038 | 20 | 248 | 4.8 | 19.3 | 0.00 | 0.00 | 0.00 | 65 | 1017.3 |
| 20260901075546 | 20 | 222 | 6.4 | 19.3 | 0.00 | 0.00 | 0.00 | 66 | 1017.7 |
| 20260901075038 | 20 | 334 | 4.8 | 12.9 | 0.00 | 0.00 | 0.00 | 66 | 1017.7 |
| 20260901074508 | 20 | 296 | 3.2 | 12.9 | 0.00 | 0.00 | 0.00 | 66 | 1017.3 |
| 20260901074026 | 20 | 318 | 4.8 | 11.3 | 0.00 | 0.00 | 0.00 | 66 | 1017.7 |
| 20260901073518 | 20 | 319 | 4.8 | 14.5 | 0.00 | 0.00 | 0.00 | 66 | 1017.6 |
| 20260901073156 | 20 | 296 | 4.8 | 17.7 | 0.00 | 0.00 | 0.00 | 67 | 1017.2 |
| 20260901073019 | 20 | 279 | 4.8 | 17.7 | 0.00 | 0.00 | 0.00 | 67 | 1017.4 |
| 20260901072525 | 20 | 206 | 4.8 | 14.5 | 0.00 | 0.00 | 0.00 | 69 | 1017.4 |
| 20260901072009 | 20 | 255 | 4.8 | 14.5 | 0.00 | 0.00 | 0.00 | 69 | 1017.5 |
| 20260901071539 | 19 | 316 | 3.2 | 19.3 | 0.00 | 0.00 | 0.00 | 70 | 1017.1 |
| 20260901071500 | 20 | 296 | 4.8 | 19.3 | 0.00 | 0.00 | 0.00 | 70 | 1017.4 |
| 20260901070446 | 20 | 250 | 4.8 | 12.9 | 0.00 | 0.00 | 0.00 | 73 | 1017.2 |
| 20260901070015 | 19 | 242 | 3.2 | 14.5 | 0.00 | 0.00 | 0.00 | 72 | 1016.8 |
| 20260901065424 | 19 | 241 | 3.2 | 14.5 | 0.00 | 0.00 | 0.00 | 72 | 1017.2 |
| 20260901064549 | 19 | 303 | 1.6 | 16.1 | 0.00 | 0.00 | 0.00 | 74 | 1016.7 |
| 20260901064414 | 19 | 313 | 3.2 | 16.1 | 0.00 | 0.00 | 0.00 | 74 | 1017.2 |
| 20260901063855 | 19 | 248 | 3.2 | 16.1 | 0.00 | 0.00 | 0.00 | 74 | 1017.1 |
| 20260901063348 | 18 | 235 | 4.8 | 16.1 | 0.00 | 0.00 | 0.00 | 77 | 1017.1 |
| 20260901063022 | 18 | 238 | 4.8 | 16.1 | 0.00 | 0.00 | 0.00 | 75 | 1016.6 |
| 20260901062838 | 18 | 241 | 4.8 | 16.1 | 0.00 | 0.00 | 0.00 | 75 | 1017.0 |
| 20260901062339 | 18 | 341 | 3.2 | 9.7 | 0.00 | 0.00 | 0.00 | 77 | 1016.9 |
| 20260901061812 | 18 | 355 | 3.2 | 8.0 | 0.00 | 0.00 | 0.00 | 78 | 1016.8 |
| 20260901061546 | 18 | 245 | 1.6 | 8.0 | 0.00 | 0.00 | 0.00 | 78 | 1016.3 |
| 20260901061302 | 18 | 280 | 3.2 | 12.9 | 0.00 | 0.00 | 0.00 | 78 | 1016.8 |